Location: Bydgoszcz
(53.1603°N, 18.1626°E)
Time: 05:27:34
(UTC+02:00)

ISS - Visible Passes

Search period start: 28 May 2018 00:00
Search period end: 07 June 2018 00:00
Orbit: 402 x 407 km, 51.6° (Epoch: 28 May)

Date Brightness Start Highest point End Pass type
(mag) Time Alt. Az. Time Alt. Az. Time Alt. Az.
28 May -1.6 01:07:34 10° W 01:08:21 14° WSW 01:08:21 14° WSW visible
28 May -3.8 22:38:32 10° W 22:41:47 63° S 22:45:02 10° ESE visible
29 May -2.7 00:15:07 10° W 00:17:42 27° SW 00:17:42 27° SW visible
29 May -3.8 21:46:21 10° W 21:49:36 68° S 21:52:51 10° E visible
29 May -3.2 23:22:48 10° W 23:25:52 37° SSW 23:27:06 26° SSE visible
30 May -3.5 22:30:32 10° W 22:33:43 49° SSW 22:36:31 13° ESE visible
31 May -1.9 00:07:30 10° WSW 00:09:08 16° SW 00:09:08 16° SW visible
31 May -2.5 23:14:56 10° W 23:17:39 24° SSW 23:18:34 21° S visible
01 Jun -2.9 22:22:32 10° W 22:25:32 33° SSW 22:28:02 13° SE visible
02 Jun -1.8 23:07:22 10° WSW 23:09:17 15° SW 23:10:09 13° SSW visible
03 Jun -2.2 22:14:39 10° W 22:17:14 21° SSW 22:19:40 11° SSE visible
05 Jun -1.4 22:07:14 10° WSW 22:08:45 13° SW 22:10:16 10° S visible
